IK3ZGB Weather Reports


time (UTC)temp
C
wind
direction
speed
KPH
gust
KPH
rain 1hr
cm
rain 24hr
cm
rain mn
cm
humidity
%
barometer
mb
20260507220844 16 0.0 0.0 0.00 0.00 0.00 78 1017.1
20260507215844 16 0.0 0.0 0.00 0.00 0.00 77 1016.8
20260507214845 16 0.0 0.0 0.00 0.00 0.00 77 1017.0
20260507213845 16 0.0 0.0 0.00 0.00 0.00 77 1017.2
20260507212844 16 0.0 0.0 0.00 0.00 0.00 77 1016.9
20260507211844 15 0.0 0.0 0.00 0.00 0.00 77 1017.2
20260507210844 16 0.0 0.0 0.00 0.00 0.00 76 1017.1
20260507205845 16 0.0 0.0 0.00 0.00 0.00 77 1017.0
20260507204845 16 0.0 0.0 0.00 0.00 0.00 77 1016.8
20260507203845 16 0.0 0.0 0.00 0.00 0.00 77 1016.7
20260507202845 16 0.0 0.0 0.00 0.00 0.00 78 1016.7
20260507201844 16 0.0 0.0 0.00 0.00 0.00 78 1016.4
20260507200844 16 0.0 0.0 0.00 0.00 0.00 78 1016.4
20260507195845 16 0.0 0.0 0.00 0.00 0.00 78 1016.6
20260507194845 16 0.0 0.0 0.00 0.00 0.00 77 1016.3
20260507193844 16 0.0 0.0 0.00 0.00 0.00 77 1016.2
20260507192845 16 0.0 0.0 0.00 0.00 0.00 78 1015.6
20260507191844 17 0.0 0.0 0.00 0.00 0.00 78 1015.7
20260507190845 17 0.0 0.0 0.00 0.00 0.00 77 1015.6
20260507185845 17 0.0 0.0 0.00 0.00 0.00 77 1015.2
20260507184844 17 0.0 0.0 0.00 0.00 0.00 77 1015.1
20260507183844 17 0.0 0.0 0.00 0.00 0.00 76 1014.9
20260507182845 17 0.0 0.0 0.00 0.00 0.00 76 1014.8
20260507181844 17 0.0 0.0 0.00 0.00 0.00 75 1014.8
20260507180845 18 0.0 0.0 0.00 0.00 0.00 74 1014.3
20260507175845 18 0.0 0.0 0.00 0.00 0.00 71 1014.3
20260507174844 18 0.0 0.0 0.00 0.00 0.00 70 1014.1
20260507173844 18 0.0 0.0 0.00 0.00 0.00 69 1013.9
20260507172845 19 0.0 0.0 0.00 0.00 0.00 69 1013.9
20260507171844 19 0.0 0.0 0.00 0.00 0.00 68 1013.9
20260507170844 20 0.0 0.0 0.00 0.00 0.00 65 1013.7
20260507165847 20 0.0 0.0 0.00 0.00 0.00 65 1013.6
20260507164843 20 0.0 0.0 0.00 0.00 0.00 65 1013.7
20260507163846 20 0.0 0.0 0.00 0.00 0.00 66 1013.5
20260507162850 20 0.0 0.0 0.00 0.00 0.00 66 1013.6
20260507161845 20 0.0 0.0 0.00 0.00 0.00 66 1013.6
20260507160845 20 0.0 0.0 0.00 0.00 0.00 65 1013.6
20260507155845 20 0.0 0.0 0.00 0.00 0.00 66 1013.5
20260507154844 20 0.0 0.0 0.00 0.00 0.00 66 1013.3
20260507153844 20 0.0 0.0 0.00 0.00 0.00 66 1013.4
20260507152845 20 0.0 0.0 0.00 0.00 0.00 66 1013.1
20260507151846 20 0.0 0.0 0.00 0.00 0.00 66 1013.2
20260507150845 20 0.0 0.0 0.00 0.00 0.00 65 1013.3
20260507145849 20 0.0 0.0 0.00 0.00 0.00 66 1013.1
20260507144844 20 0.0 0.0 0.00 0.00 0.00 68 1013.3
20260507143845 20 0.0 0.0 0.00 0.00 0.00 68 1013.1
20260507142845 20 0.0 0.0 0.00 0.00 0.00 67 1013.4
20260507141845 20 0.0 0.0 0.00 0.00 0.00 67 1013.3
20260507140852 20 0.0 0.0 0.00 0.00 0.00 71 1013.4
20260507135847 20 0.0 0.0 0.00 0.00 0.00 74 1013.5
20260507134844 19 0.0 0.0 0.00 0.00 0.00 74 1013.7
20260507133848 18 0.0 0.0 0.00 0.00 0.00 77 1013.3
20260507132845 18 0.0 0.0 0.00 0.00 0.00 78 1013.5
20260507131850 18 0.0 0.0 0.00 0.00 0.00 76 1013.9
20260507130844 17 0.0 0.0 0.00 0.00 0.00 72 1013.6
20260507125845 17 0.0 0.0 0.00 0.00 0.00 74 1013.9
20260507124845 17 0.0 0.0 0.00 0.00 0.00 74 1013.3
20260507123844 19 0.0 0.0 0.00 0.00 0.00 71 1012.9
20260507122845 21 0.0 0.0 0.00 0.00 0.00 66 1013.0
20260507121844 21 0.0 0.0 0.00 0.00 0.00 63 1012.9
20260507120844 22 0.0 0.0 0.00 0.00 0.00 62 1013.0
20260507115845 22 0.0 0.0 0.00 0.00 0.00 62 1013.1
20260507114848 23 0.0 0.0 0.00 0.00 0.00 64 1013.5
20260507113845 22 0.0 0.0 0.00 0.00 0.00 63 1013.0
20260507112845 22 0.0 0.0 0.00 0.00 0.00 64 1013.4
20260507111845 22 0.0 0.0 0.00 0.00 0.00 63 1013.3
20260507110846 23 0.0 0.0 0.00 0.00 0.00 61 1013.4
20260507105844 22 0.0 0.0 0.00 0.00 0.00 62 1013.3
20260507104843 22 0.0 0.0 0.00 0.00 0.00 62 1013.6
20260507103845 21 0.0 0.0 0.00 0.00 0.00 62 1013.8
20260507102845 22 0.0 0.0 0.00 0.00 0.00 62 1013.8
20260507101845 22 0.0 0.0 0.00 0.00 0.00 62 1014.0
20260507100845 23 0.0 0.0 0.00 0.00 0.00 63 1014.0
20260507095845 22 0.0 0.0 0.00 0.00 0.00 63 1013.8
20260507094844 22 0.0 0.0 0.00 0.00 0.00 62 1013.8
20260507093844 22 0.0 0.0 0.00 0.00 0.00 62 1014.1
20260507092843 22 0.0 0.0 0.00 0.00 0.00 63 1014.0
20260507091845 22 0.0 0.0 0.00 0.00 0.00 63 1013.9
20260507090844 22 0.0 0.0 0.00 0.00 0.00 63 1014.1
20260507085845 23 0.0 0.0 0.00 0.00 0.00 63 1014.2
20260507084845 23 0.0 0.0 0.00 0.00 0.00 64 1014.3
20260507083844 23 0.0 0.0 0.00 0.00 0.00 65 1014.1
20260507082846 22 0.0 0.0 0.00 0.00 0.00 64 1014.2
20260507081844 23 0.0 0.0 0.00 0.00 0.00 65 1013.9
20260507080844 23 0.0 0.0 0.00 0.00 0.00 66 1014.1
20260507075845 22 0.0 0.0 0.00 0.00 0.00 67 1014.2
20260507074844 22 0.0 0.0 0.00 0.00 0.00 67 1014.2
20260507073844 22 0.0 0.0 0.00 0.00 0.00 68 1014.3
20260507072844 22 0.0 0.0 0.00 0.00 0.00 69 1014.2
20260507071845 22 0.0 0.0 0.00 0.00 0.00 68 1014.4
20260507070844 22 0.0 0.0 0.00 0.00 0.00 68 1014.3
20260507065844 21 0.0 0.0 0.00 0.00 0.00 70 1014.1
20260507064845 21 0.0 0.0 0.00 0.00 0.00 69 1013.9
20260507063844 21 0.0 0.0 0.00 0.00 0.00 71 1013.9
20260507062845 20 0.0 0.0 0.00 0.00 0.00 71 1014.3
20260507061845 20 0.0 0.0 0.00 0.00 0.00 72 1014.4
20260507060845 18 0.0 0.0 0.00 0.00 0.00 72 1014.5
20260507055844 17 0.0 0.0 0.00 0.00 0.00 73 1014.6
20260507054846 21 0.0 0.0 0.00 0.00 0.00 76 1014.3
20260507053844 14 0.0 0.0 0.00 0.00 0.00 80 1014.0
20260507052844 14 0.0 0.0 0.00 0.00 0.00 80 1014.1
20260507051845 14 0.0 0.0 0.00 0.00 0.00 80 1013.8
20260507050845 14 0.0 0.0 0.00 0.00 0.00 78 1014.1
20260507045845 15 0.0 0.0 0.00 0.00 0.00 76 1014.1
20260507044845 15 0.0 0.0 0.00 0.00 0.00 79 1013.9
20260507043845 13 0.0 0.0 0.00 0.00 0.00 81 1013.8
20260507042845 12 0.0 0.0 0.00 0.00 0.00 83 1013.8
20260507041844 12 0.0 0.0 0.00 0.00 0.00 83 1013.5
20260507040844 12 0.0 0.0 0.00 0.00 0.00 82 1013.5
20260507035844 12 0.0 0.0 0.00 0.00 0.00 83 1013.5
20260507034843 12 0.0 0.0 0.00 0.00 0.00 83 1013.0
20260507033844 12 0.0 0.0 0.00 0.00 0.00 83 1013.3
20260507032844 12 0.0 0.0 0.00 0.00 0.00 83 1013.2
20260507031845 12 0.0 0.0 0.00 0.00 0.00 83 1012.9
20260507030844 12 0.0 0.0 0.00 0.00 0.00 83 1013.1
20260507025845 12 0.0 0.0 0.00 0.00 0.00 83 1012.7
20260507024844 12 0.0 0.0 0.00 0.00 0.00 83 1012.8
20260507023845 12 0.0 0.0 0.00 0.00 0.00 83 1013.0
20260507022844 12 0.0 0.0 0.00 0.00 0.00 83 1013.3
20260507021844 12 0.0 0.0 0.00 0.00 0.00 83 1013.2
20260507020844 13 0.0 0.0 0.00 0.00 0.00 84 1013.0
20260507015844 12 0.0 0.0 0.00 0.00 0.00 83 1012.8
20260507014845 12 0.0 0.0 0.00 0.00 0.00 84 1012.7
20260507013845 13 0.0 0.0 0.00 0.00 0.00 84 1013.0
20260507012846 12 0.0 0.0 0.00 0.00 0.00 84 1012.7
20260507011844 13 0.0 0.0 0.00 0.00 0.00 83 1012.7
20260507010845 13 0.0 0.0 0.00 0.00 0.00 83 1012.9
20260507005845 13 0.0 0.0 0.00 0.00 0.00 84 1013.0
20260507004844 13 0.0 0.0 0.00 0.00 0.00 83 1012.9
20260507003844 13 0.0 0.0 0.00 0.00 0.00 83 1013.1
20260507002845 13 0.0 0.0 0.00 0.00 0.00 83 1013.0
20260507001844 13 0.0 0.0 0.00 0.00 0.00 83 1012.8
20260507000844 13 0.0 0.0 0.00 0.00 0.00 83 1012.9
20260506235844 13 0.0 0.0 0.00 0.00 0.00 83 1012.8
20260506234844 14 0.0 0.0 0.00 0.00 0.00 84 1012.8
20260506233844 14 0.0 0.0 0.00 0.00 0.00 84 1012.9
20260506232844 14 0.0 0.0 0.00 0.00 0.00 84 1013.0
20260506231845 14 0.0 0.0 0.00 0.00 0.00 84 1012.7
20260506230845 14 0.0 0.0 0.00 0.00 0.00 84 1012.8
20260506225844 14 0.0 0.0 0.00 0.00 0.00 84 1012.9
20260506224845 14 0.0 0.0 0.00 0.00 0.00 84 1012.9
20260506223844 14 0.0 0.0 0.00 0.00 0.00 84 1013.0
20260506222844 14 0.0 0.0 0.00 0.00 0.00 84 1012.9
20260506221845 14 0.0 0.0 0.00 0.00 0.00 84 1012.9